[[{"header":{"parameterUnit":"m.s-1","parameterCategory":1,"la1":30.2991,"la2":30.254,"lo1":-89.0895,"lo2":-89.0444,"dy":0.0017,"dx":0.0017,"nx":28,"ny":28,"refTime":"2024-11-30T09:00:00:Z","depth":0,"parameterNumber":2,"parameterNumberName":"U-component_of_WINDS"},"data":[0,0,0,0,0,0,0,0,0,0,0,0,0,0,0,0,0,0,0,0,0,0,0,0,0,0,0,0,0,0,0,0,0,0,0,0,0,0,0,0,0,0,0,0,0,0,0,0,0,0,0,0,0,0,0,0,0,0,-0.4726,-0.4725,0,-0.4634,-0.4633,-0.4632,-0.4476,-0.4473,-0.447,-0.4467,-0.4376,-0.4376,-0.4377,0,0,0,0,0,0,0,0,0,0,0,0,0,-0.477,-0.477,-0.4726,-0.4725,-0.4724,-0.4634,-0.4633,-0.4632,-0.4476,-0.4473,-0.4469,-0.4466,-0.4376,-0.4376,-0.4377,0,0,0,0,0,0,0,0,0,0,0,0,0,-0.4722,-0.477,-0.4726,-0.4635,-0.4626,-0.4634,-0.4633,-0.4631,-0.4477,-0.4473,-0.4468,-0.4464,-0.4376,-0.4376,-0.4377,-0.4467,0,0,-0.4378,-0.4378,0,0,0,0,0,0,0,0,-0.4725,-0.472,-0.465,-0.4642,-0.4631,-0.4562,-0.4615,-0.4576,-0.4478,-0.4534,-0.4467,-0.4462,-0.4442,-0.4436,-0.4429,-0.4463,-0.4459,-0.4378,-0.4378,-0.4379,-0.4379,0,0,0,0,0,0,0,-0.4728,-0.4723,-0.469,-0.4649,-0.4638,-0.46,-0.4588,-0.4607,-0.4514,-0.4529,-0.4517,-0.4508,-0.4436,-0.4429,-0.4426,-0.4458,-0.4378,-0.4378,-0.4379,-0.4379,-0.4561,-0.4566,0,0,0,0,0,0,-0.4745,-0.4727,-0.4692,-0.4687,-0.4668,-0.4603,-0.459,-0.4589,-0.4513,-0.4497,-0.4512,-0.4501,-0.443,-0.4425,-0.4422,-0.4523,-0.4379,-0.4379,-0.4379,-0.4557,-0.4562,-0.4567,0,0,0,0,0,0,-0.4746,-0.4743,-0.4696,-0.4704,-0.4695,-0.4607,-0.4607,-0.4589,-0.4582,-0.45,-0.4483,-0.4522,-0.4427,-0.4421,-0.4457,-0.4517,-0.4379,-0.438,-0.4551,-0.4558,-0.4565,-0.4726,0,0,0,0,0,0,-0.4748,-0.4744,-0.4777,-0.4706,-0.4695,-0.4733,-0.461,-0.459,-0.4583,-0.4568,-0.4505,-0.449,-0.4423,-0.4457,-0.4457,-0.4515,-0.438,-0.4545,-0.4554,-0.4563,-0.4715,-0.4737,-0.4756,0,0,0,0,0,-0.475,-0.4827,-0.478,-0.4776,-0.4734,-0.4736,-0.473,-0.465,-0.4588,-0.4621,-0.4568,-0.4492,-0.4511,-0.4462,-0.4461,-0.452,-0.4541,-0.4552,-0.4562,-0.4705,-0.4733,-0.4756,0,0,0,0,0,0,-0.4909,-0.4816,-0.4762,-0.4818,-0.4786,-0.471,-0.4749,-0.4682,-0.4668,-0.4654,-0.4556,-0.4543,-0.4592,-0.4559,-0.4507,-0.4604,-0.4514,-0.4525,-0.4623,-0.4649,-0.467,-0.4677,-0.438,0,0,0,0,0,-0.495,-0.4959,-0.4877,-0.4934,-0.4921,-0.4838,-0.4836,-0.4777,-0.474,-0.4726,-0.4676,-0.4645,-0.4643,-0.4644,-0.4638,-0.4709,-0.4693,-0.4749,-0.477,-0.4788,-0.4798,-0.4834,-0.4858,-0.4601,-0.4601,-0.4601,0,0,-0.5036,-0.4986,-0.4997,-0.4965,-0.4933,-0.4945,-0.4828,-0.4845,-0.4853,-0.4729,-0.4759,-0.4722,-0.468,-0.4734,-0.4755,-0.4708,-0.4866,-0.4801,-0.4816,-0.4816,-0.4847,-0.4871,-0.4893,-0.4608,-0.4607,-0.4606,0,0,-0.5198,-0.5161,-0.5204,-0.5175,-0.5128,-0.5072,-0.5083,-0.5017,-0.4987,-0.5016,-0.4923,-0.4932,-0.4931,-0.4905,-0.4892,-0.5045,-0.4974,-0.5045,-0.5155,-0.5191,-0.5211,-0.5229,-0.5284,-0.5305,-0.5056,-0.5056,-0.5057,0,-0.5311,-0.5324,-0.5235,-0.5259,-0.5247,-0.5134,-0.5178,-0.5154,-0.5109,-0.5104,-0.5052,-0.5048,-0.5012,-0.5059,-0.5096,-0.5089,-0.5099,-0.5052,-0.5215,-0.5232,-0.5247,-0.5299,-0.532,-0.5065,-0.5064,-0.5063,-0.5063,0,-0.5465,-0.5476,-0.5517,-0.5474,-0.5468,-0.5502,-0.5419,-0.5423,-0.5365,-0.5315,-0.5347,-0.5299,-0.5282,-0.5288,-0.5232,-0.5327,-0.5299,-0.5233,-0.5141,-0.5282,-0.5329,-0.5348,-0.5078,-0.5075,-0.5072,-0.507,0,0,-0.5725,-0.5633,-0.5649,-0.5629,-0.5569,-0.5576,-0.5605,-0.5587,-0.5593,-0.5566,-0.5588,-0.559,-0.5528,-0.5513,-0.5453,-0.5484,-0.5609,-0.5413,-0.5411,-0.5452,-0.5712,-0.5763,-0.5787,-0.5562,-0.5565,-0.5568,-0.5716,0,-0.5875,-0.5918,-0.5839,-0.5902,-0.5911,-0.5804,-0.5829,-0.5796,-0.5751,-0.5753,-0.5702,-0.5706,-0.5623,-0.5614,-0.564,-0.5589,-0.566,-0.5577,-0.5583,-0.5584,-0.5597,-0.5811,-0.5865,-0.6007,-0.5733,-0.5736,-0.5739,0,-0.6055,-0.6036,-0.6099,-0.6036,-0.6037,-0.6061,-0.6038,-0.6041,-0.6002,-0.5966,-0.595,-0.5879,-0.5904,-0.5815,-0.5848,-0.5793,-0.5791,-0.5766,-0.577,-0.5768,-0.5671,-0.5816,-0.605,-0.6072,-0.5766,-0.5764,-0.5762,0,-0.6239,-0.6229,-0.6265,-0.6251,-0.6178,-0.6197,-0.6168,-0.6124,-0.6118,-0.6099,-0.6094,-0.6079,-0.6071,-0.6061,-0.5987,-0.5929,-0.603,-0.5935,-0.6002,-0.6005,-0.6029,-0.6028,-0.6267,-0.6027,-0.6027,-0.6027,-0.6026,0,-0.6415,-0.6458,-0.6347,-0.6369,-0.6415,-0.6324,-0.6372,-0.6332,-0.6294,-0.6307,-0.6214,-0.6229,-0.6131,-0.6136,-0.6079,-0.6116,-0.6112,-0.6085,-0.607,-0.6094,-0.6098,-0.6091,-0.608,-0.6032,-0.6031,-0.603,-0.6029,0,-0.6628,-0.6555,-0.6587,-0.6515,-0.6498,-0.6535,-0.6474,-0.6492,-0.6441,-0.6459,-0.6458,-0.6378,-0.6379,-0.6305,-0.629,-0.6252,-0.6314,-0.628,-0.6327,-0.6316,-0.6388,-0.6383,-0.6631,-0.6659,-0.6403,-0.6405,-0.6407,0,-0.6745,-0.6775,-0.6706,-0.6708,-0.6683,-0.6688,-0.6681,-0.6594,-0.6592,-0.6549,-0.6573,-0.6566,-0.6555,-0.6562,-0.6503,-0.6492,-0.6457,-0.6545,-0.6455,-0.6479,-0.6459,-0.6459,-0.6461,-0.6564,-0.6568,-0.657,-0.6572,0,-0.6961,-0.6923,-0.6917,-0.6899,-0.6894,-0.6875,-0.6851,-0.6858,-0.6763,-0.6765,-0.6764,-0.6756,-0.6741,-0.6736,-0.6714,-0.6684,-0.6614,-0.6601,-0.6616,-0.6642,-0.6668,-0.6655,-0.6379,-0.6596,-0.6594,-0.6592,-0.6591,-0.659,-0.7129,-0.7151,-0.7106,-0.7103,-0.7075,-0.7055,-0.7069,-0.7019,-0.7017,-0.6997,-0.6946,-0.6954,-0.6914,-0.6877,-0.6854,-0.6859,-0.6815,-0.6837,-0.6842,-0.6849,-0.6863,-0.6667,-0.6855,-0.6854,-0.6853,-0.6852,-0.6852,0,-0.734,-0.7306,-0.7304,-0.7273,-0.727,-0.7203,-0.7173,-0.7176,-0.7183,-0.7152,-0.7143,-0.7143,-0.7137,-0.7078,-0.7065,-0.7081,-0.7049,-0.7081,-0.7079,-0.7074,-0.6903,-0.6891,-0.7108,-0.7108,-0.7108,-0.7108,-0.7108,-0.7108,-0.745,-0.7484,-0.7442,-0.7462,-0.7427,-0.7433,-0.7422,-0.7403,-0.7377,-0.7381,-0.7375,-0.7336,-0.7294,-0.7278,-0.727,-0.7253,-0.7253,-0.7297,-0.7269,-0.711,-0.7086,-0.7062,-0.7051,-0.7297,-0.7297,-0.7439,-0.744,-0.7441]},{"header":{"parameterUnit":"m.s-1","parameterCategory":1,"la1":30.2991,"la2":30.254,"lo1":-89.0895,"lo2":-89.0444,"dy":0.0017,"dx":0.0017,"nx":28,"ny":28,"refTime":"2024-11-30T09:00:00:Z","depth":0,"parameterNumber":3,"parameterNumberName":"V-component_of_WINDS"},"data":[0,0,0,0,0,0,0,0,0,0,0,0,0,0,0,0,0,0,0,0,0,0,0,0,0,0,0,0,0,0,0,0,0,0,0,0,0,0,0,0,0,0,0,0,0,0,0,0,0,0,0,0,0,0,0,0,0,0,-1.3969,-1.3969,0,-1.3967,-1.3967,-1.3967,-1.395,-1.395,-1.395,-1.3949,-1.3949,-1.3949,-1.395,0,0,0,0,0,0,0,0,0,0,0,0,0,-1.3959,-1.3959,-1.3969,-1.3969,-1.3969,-1.3967,-1.3967,-1.3967,-1.395,-1.395,-1.3949,-1.3949,-1.3949,-1.3949,-1.395,0,0,0,0,0,0,0,0,0,0,0,0,0,-1.3961,-1.3959,-1.3969,-1.396,-1.396,-1.3967,-1.3967,-1.3967,-1.3951,-1.395,-1.3949,-1.3949,-1.3949,-1.3949,-1.395,-1.3966,0,0,-1.3952,-1.3952,0,0,0,0,0,0,0,0,-1.3961,-1.3961,-1.3962,-1.3961,-1.396,-1.3958,-1.3964,-1.3967,-1.3951,-1.3954,-1.3949,-1.3948,-1.3953,-1.3953,-1.3954,-1.3966,-1.3966,-1.3952,-1.3952,-1.3952,-1.3953,0,0,0,0,0,0,0,-1.3961,-1.3961,-1.3968,-1.3962,-1.3961,-1.3957,-1.3957,-1.3964,-1.3957,-1.3954,-1.3952,-1.3952,-1.3952,-1.3954,-1.3954,-1.3966,-1.3952,-1.3952,-1.3953,-1.3953,-1.3993,-1.3993,0,0,0,0,0,0,-1.3962,-1.3961,-1.3968,-1.3968,-1.3959,-1.3958,-1.3957,-1.396,-1.3957,-1.3956,-1.3953,-1.3952,-1.3953,-1.3953,-1.3954,-1.3974,-1.3952,-1.3953,-1.3953,-1.3992,-1.3993,-1.3994,0,0,0,0,0,0,-1.3961,-1.3962,-1.3969,-1.3964,-1.3965,-1.3959,-1.3961,-1.396,-1.3961,-1.3956,-1.3955,-1.3956,-1.3952,-1.3953,-1.3963,-1.3973,-1.3953,-1.3954,-1.3991,-1.3992,-1.3993,-1.4013,0,0,0,0,0,0,-1.3961,-1.3962,-1.3968,-1.3965,-1.3965,-1.3978,-1.3962,-1.396,-1.3962,-1.396,-1.3959,-1.3958,-1.3952,-1.3963,-1.3964,-1.3974,-1.3954,-1.399,-1.3992,-1.3993,-1.4012,-1.4015,-1.4017,0,0,0,0,0,-1.3961,-1.3974,-1.3969,-1.397,-1.3973,-1.3978,-1.3979,-1.3972,-1.3963,-1.3969,-1.3966,-1.3958,-1.3972,-1.3964,-1.3965,-1.3976,-1.399,-1.3991,-1.3993,-1.401,-1.4014,-1.4017,0,0,0,0,0,0,-1.398,-1.3974,-1.3968,-1.398,-1.398,-1.3976,-1.3983,-1.3976,-1.3978,-1.3977,-1.3968,-1.3968,-1.398,-1.3978,-1.397,-1.3992,-1.3979,-1.3981,-1.3992,-1.3996,-1.3999,-1.3999,-1.3955,0,0,0,0,0,-1.3985,-1.399,-1.3985,-1.3996,-1.3996,-1.399,-1.3992,-1.3986,-1.3986,-1.3986,-1.3984,-1.3984,-1.3989,-1.3992,-1.3996,-1.4011,-1.4011,-1.4018,-1.4021,-1.4024,-1.4026,-1.4034,-1.4038,-1.3999,-1.3999,-1.3999,0,0,-1.3997,-1.3994,-1.3998,-1.4,-1.3999,-1.4005,-1.399,-1.3997,-1.4001,-1.3987,-1.3997,-1.3995,-1.3995,-1.4008,-1.4013,-1.4007,-1.4037,-1.4026,-1.4028,-1.4029,-1.4036,-1.404,-1.4044,-1.4,-1.4,-1.3999,0,0,-1.4022,-1.402,-1.403,-1.4029,-1.4028,-1.4023,-1.4025,-1.4022,-1.402,-1.4029,-1.4019,-1.4024,-1.4032,-1.4033,-1.4034,-1.4058,-1.4051,-1.406,-1.4076,-1.4084,-1.4087,-1.409,-1.4099,-1.4103,-1.4062,-1.4062,-1.4062,0,-1.4037,-1.4045,-1.4036,-1.4043,-1.4044,-1.4031,-1.4042,-1.4041,-1.4042,-1.4043,-1.4036,-1.4045,-1.4044,-1.4058,-1.4063,-1.4065,-1.4068,-1.4061,-1.4087,-1.409,-1.4092,-1.4101,-1.4105,-1.4063,-1.4063,-1.4063,-1.4062,0,-1.4064,-1.4069,-1.4077,-1.4078,-1.408,-1.4088,-1.4081,-1.4084,-1.4078,-1.4074,-1.4084,-1.4082,-1.4086,-1.4088,-1.4083,-1.4101,-1.4097,-1.4089,-1.4076,-1.4097,-1.4106,-1.4109,-1.4064,-1.4064,-1.4064,-1.4063,0,0,-1.4102,-1.4096,-1.4099,-1.4099,-1.4096,-1.4101,-1.4109,-1.4112,-1.4115,-1.4115,-1.4123,-1.4129,-1.4121,-1.4123,-1.4117,-1.4124,-1.4144,-1.4115,-1.4115,-1.4121,-1.4165,-1.4172,-1.4177,-1.4139,-1.414,-1.414,-1.4166,0,-1.4126,-1.4139,-1.4131,-1.4146,-1.4152,-1.4139,-1.4146,-1.4145,-1.4142,-1.4146,-1.4143,-1.4148,-1.4136,-1.4137,-1.4144,-1.4141,-1.4153,-1.4138,-1.4147,-1.4147,-1.4148,-1.4181,-1.4188,-1.4213,-1.4169,-1.4169,-1.417,0,-1.4157,-1.4158,-1.4173,-1.417,-1.4172,-1.4178,-1.418,-1.4184,-1.4183,-1.418,-1.4182,-1.4174,-1.4182,-1.4169,-1.4181,-1.4171,-1.4173,-1.4172,-1.4173,-1.4175,-1.416,-1.4184,-1.422,-1.4224,-1.4174,-1.4174,-1.4174,0,-1.4184,-1.4189,-1.4199,-1.42,-1.4195,-1.42,-1.4199,-1.4197,-1.4199,-1.4201,-1.4203,-1.4205,-1.4207,-1.421,-1.4203,-1.4194,-1.4216,-1.4202,-1.4215,-1.4215,-1.4221,-1.4221,-1.4259,-1.4221,-1.4221,-1.4221,-1.422,0,-1.4213,-1.4223,-1.4212,-1.4218,-1.4229,-1.4219,-1.4231,-1.4228,-1.4226,-1.4232,-1.4221,-1.4227,-1.4218,-1.4223,-1.4217,-1.4228,-1.4229,-1.4227,-1.4226,-1.4229,-1.4229,-1.4232,-1.423,-1.4222,-1.4221,-1.4221,-1.4221,0,-1.4246,-1.4239,-1.4249,-1.4244,-1.4242,-1.4251,-1.4247,-1.4253,-1.4248,-1.4256,-1.4257,-1.425,-1.4255,-1.4248,-1.4253,-1.425,-1.4265,-1.426,-1.4265,-1.4264,-1.4278,-1.4277,-1.4319,-1.4325,-1.4282,-1.4282,-1.4283,0,-1.4266,-1.4273,-1.4269,-1.4271,-1.427,-1.4275,-1.4277,-1.4268,-1.4271,-1.427,-1.4276,-1.428,-1.4283,-1.4292,-1.4288,-1.4292,-1.4288,-1.4303,-1.4289,-1.4292,-1.429,-1.429,-1.4291,-1.4306,-1.4307,-1.4307,-1.4307,0,-1.4302,-1.4298,-1.4301,-1.4303,-1.4305,-1.4306,-1.4307,-1.431,-1.43,-1.4304,-1.4309,-1.4311,-1.4315,-1.432,-1.4322,-1.4321,-1.4313,-1.4311,-1.4315,-1.4319,-1.4321,-1.4321,-1.4274,-1.4311,-1.4311,-1.431,-1.431,-1.431,-1.4329,-1.4336,-1.4333,-1.4337,-1.4336,-1.4337,-1.4342,-1.4338,-1.4342,-1.4345,-1.4339,-1.4345,-1.4344,-1.4346,-1.4346,-1.4351,-1.4345,-1.435,-1.4351,-1.4353,-1.4355,-1.4319,-1.4352,-1.4352,-1.4351,-1.4351,-1.4351,0,-1.4366,-1.4364,-1.4367,-1.4368,-1.4371,-1.4362,-1.4362,-1.4365,-1.4371,-1.437,-1.4373,-1.4379,-1.4383,-1.4379,-1.4383,-1.4388,-1.4384,-1.4389,-1.4389,-1.4389,-1.436,-1.4357,-1.4392,-1.4392,-1.4392,-1.4392,-1.4392,-1.4392,-1.4385,-1.4396,-1.4391,-1.4401,-1.4398,-1.4404,-1.4405,-1.4406,-1.4405,-1.4412,-1.4415,-1.4412,-1.441,-1.4414,-1.4417,-1.4416,-1.4418,-1.4425,-1.4422,-1.4395,-1.4391,-1.4388,-1.4385,-1.4425,-1.4425,-1.4451,-1.4452,-1.4452]}]]